Retour au catalogue

STARLINK-4375

ActifCommunicationsSSO
NORAD 53192·PAYLOAD·🇺🇸 United States

Lancé Jul 22, 2022 depuis Vandenberg Space Force Base

Loading…

Prochains Passages (prochaines 24 heures)

TLE

FraisSource: CelesTrak SupGP

Époque: Sep 14, 2026, 21:19 UTC

1 53192C 22084D   26257.88868056 -.00022548  00000+0 -70021-3 0  2579
2 53192  97.2846 313.6193 0001711  76.4460 222.2043 15.33437915    18

Suivez STARLINK-4375 en temps réel avec AllMySat

Download on the App Store